sat.trackr.live / text

‹ back to catalog

STARLINK-37515

NORAD 69169 · 2026-111X

PAYLOAD ACTIVE UNKNOWN

§ Identity

Operator
Country
US
Launch date
2026-05-21
Launch site
AFETR
Launch vehicle
Mass (kg)
RCS (m²)

Purposes: comms

External: N2YO · Heavens-Above · Gunter

§ Orbital elements

Epoch: 2026-09-20T03:04:52.552128Z

Period
93.85 min
Inclination
53.1588°
Eccentricity
0.0000737
Mean motion
15.34424060 rev/d
Perigee alt
462.1 km
Apogee alt
463.1 km
Semi-major
6,840.8 km
B*
3.0085e-4
RAAN
67.3201°
Arg perigee
205.1801°
Mean anomaly
154.9166°
Rev number
1,884

§ Raw data

STARLINK-375151 69169U 26111X   26263.12838602  .00009810  00000+0  30085-3 0  99972 69169  53.1588  67.3201 0000737 205.1801 154.9166 15.34424060 18848

JSON: /api/v1/satellites/69169 · /tle

For live sub-satellite position, see the globe view (requires WebGL).

§ Visibility from observer

Set your observer location to see the next 7 days of passes ≥ 10°. The values pass through the URL so the page stays shareable.

No JS? Fill the form by hand. The geolocation button needs JavaScript.